DW7601 San Vito IT current weather conditions

sailwx.info

Wind from 037 at 1 knots gusting 5

Air temperature 11.7° C
Dewpoint 6.6° C

Last reported at 2016-May-05 03:41 UTC.
Time now 2016-May-05 04:47 UTC

Location: N 39°27' E 009°32'.
View on Google Maps.

See reports from other nearby stations

  
Tides and Currents Weather Stations Pressure Air Temp Water Temp Dewpoint Dewpoint Depression Visibility Wind Speed Wind Dir Waves Ship Positions
date/time (UTC)wind fromknots sea level pressurealtimeterstation pressurevisibilityair tempwater tempwave heightnotes
2016-May-05 03:41 037 1 gusting 5 11.7
2016-May-05 03:31 084 1 gusting 2 11.7
2016-May-05 03:21 038 1 gusting 5 11.7
2016-May-05 03:11 049 1 gusting 4 11.7
2016-May-05 03:01 035 1 gusting 4 12.2
2016-May-05 02:51 068 1 gusting 4 12.2
2016-May-05 02:41 307 1 gusting 4 12.2
2016-May-05 02:11 061 1 gusting 6 12.8
2016-May-05 02:01 039 0 gusting 4 12.8
2016-May-05 01:51 037 12.8
2016-May-05 01:41 154 1 gusting 4 12.8
2016-May-05 01:31 068 1 gusting 4 12.8
2016-May-05 01:21 045 1 gusting 5 12.8
2016-May-05 01:11 105 0 gusting 1 12.8
2016-May-05 01:01 022 0 gusting 2 13.3
2016-May-05 00:51 086 13.3
2016-May-05 00:41 357 0 gusting 1 13.3
2016-May-05 00:31 068 1 gusting 2 13.3
2016-May-05 00:21 100 1 gusting 4 13.9
2016-May-05 00:11 012 0 gusting 4 13.9
2016-May-05 00:01 068 0 gusting 2 13.9
2016-May-04 23:51 055 0 gusting 2 13.9
2016-May-04 23:41 060 1 gusting 2 13.9
2016-May-04 23:31 079 1 gusting 2 13.9
2016-May-04 23:21 053 0 gusting 1 13.9
2016-May-04 23:11 068 0 gusting 1 13.9
2016-May-04 23:01 049 0 gusting 1 13.9
2016-May-04 22:51 022 0 gusting 0 14.4
2016-May-04 22:41 101 14.4
2016-May-04 22:31 234 14.4
2016-May-04 22:21 305 14.4
2016-May-04 22:11 070 14.4
2016-May-04 22:01 278 15.0
2016-May-04 21:51 068 0 gusting 0 15.0
2016-May-04 21:41 084 15.0
2016-May-04 21:31 068 14.4
2016-May-04 21:21 068 14.4
2016-May-04 21:11 068 14.4
2016-May-04 21:01 081 15.0
2016-May-04 20:51 270 15.0
2016-May-04 20:41 112 15.0
2016-May-04 20:31 103 15.0
2016-May-04 20:21 077 15.6
2016-May-04 20:11 151 15.6
2016-May-04 20:01 087 16.1
2016-May-04 19:51 135 16.1
2016-May-04 19:41 068 16.7
2016-May-04 19:31 087 16.7
2016-May-04 19:21 029 17.2
2016-May-04 19:11 292 17.2
2016-May-04 19:01 052 17.8
2016-May-04 18:51 055 17.8
2016-May-04 18:31 282 0 gusting 1 18.3
2016-May-04 18:21 330 0 gusting 1 18.9
2016-May-04 18:11 211 0 gusting 1 19.4
2016-May-04 18:01 180 0 gusting 1 19.4
2016-May-04 17:51 178 0 gusting 2 20.0
2016-May-04 17:41 151 1 gusting 4 20.6
2016-May-04 17:31 173 1 gusting 4 21.1
2016-May-04 17:21 142 1 gusting 2 21.7
2016-May-04 17:11 149 2 gusting 6 22.2
2016-May-04 17:01 152 2 gusting 4 22.2
2016-May-04 16:51 143 1 gusting 4 22.2
2016-May-04 16:31 165 2 gusting 6 23.3
2016-May-04 16:21 135 1 gusting 6 23.3
2016-May-04 16:11 173 2 gusting 5 23.9
2016-May-04 16:01 148 2 gusting 6 24.4
2016-May-04 15:51 211 3 gusting 6 24.4
2016-May-04 15:41 180 4 gusting 7 23.9
2016-May-04 15:31 174 4 gusting 6 24.4
2016-May-04 15:21 148 4 gusting 6 24.4
2016-May-04 15:11 206 4 gusting 7 24.4
2016-May-04 15:01 151 5 gusting 7 25.0
2016-May-04 14:51 174 5 gusting 7 25.0
2016-May-04 14:21 135 2 gusting 6 25.0
2016-May-04 14:01 088 2 gusting 6 25.0
2016-May-04 13:51 223 2 gusting 6 25.0
2016-May-04 13:41 149 2 gusting 6 25.0
2016-May-04 13:31 119 2 gusting 6 25.6
2016-May-04 13:21 356 2 gusting 6 25.6
2016-May-04 13:11 045 4 gusting 6 25.6
2016-May-04 13:01 112 4 gusting 7 25.6
2016-May-04 12:51 152 2 gusting 8 25.6
2016-May-04 12:31 112 4 gusting 6 25.6
2016-May-04 12:21 097 4 gusting 6 25.6
2016-May-04 12:11 099 4 gusting 6 26.1
2016-May-04 12:01 174 3 gusting 7 26.7
2016-May-04 11:51 135 3 gusting 6 26.7
2016-May-04 11:41 112 2 gusting 6 26.7
2016-May-04 11:31 292 4 gusting 8 26.7
2016-May-04 11:21 164 4 gusting 8 26.7
2016-May-04 11:11 185 4 gusting 7 26.7
2016-May-04 11:01 136 2 gusting 7 26.7
2016-May-04 10:51 157 4 gusting 12 26.7
2016-May-04 10:31 082 2 gusting 6 26.7
2016-May-04 10:21 111 2 gusting 6 26.1
2016-May-04 10:11 135 4 gusting 6 26.1
2016-May-04 09:41 213 4 gusting 6 26.1
2016-May-04 09:31 103 1 gusting 4 26.1
2016-May-04 09:21 078 0 gusting 1 25.6
2016-May-04 09:11 089 25.0
2016-May-04 09:01 292 1 gusting 4 24.4
2016-May-04 08:51 046 1 gusting 4 23.9
2016-May-04 08:41 090 2 gusting 2 23.3
2016-May-04 08:31 090 2 gusting 6 22.8
2016-May-04 08:21 082 3 gusting 7 22.2
2016-May-04 08:01 068 2 gusting 6 21.1
2016-May-04 07:51 041 2 gusting 6 20.6
2016-May-04 07:31 091 4 gusting 6 20.0
2016-May-04 07:21 336 3 gusting 5 20.0
2016-May-04 07:11 024 1 gusting 2 19.4
2016-May-04 07:01 105 2 gusting 6 18.9
2016-May-04 06:51 009 2 gusting 5 18.3
2016-May-04 06:41 315 2 gusting 7 17.8
2016-May-04 06:31 001 2 gusting 5 17.2
2016-May-04 06:21 336 2 gusting 5 16.7
2016-May-04 06:11 346 1 gusting 4 16.1
2016-May-04 06:01 315 3 gusting 6 16.1
2016-May-04 05:51 038 1 gusting 6 16.1
2016-May-04 05:41 065 1 gusting 5 15.6
2016-May-04 05:31 052 4 gusting 8 15.6
2016-May-04 05:21 034 5 gusting 8 15.6
2016-May-04 05:11 060 4 gusting 7 15.6
2016-May-04 05:01 102 5 gusting 12 15.6
2016-May-04 04:51 348 4 gusting 7 15.6
2016-May-04 04:41 061 5 gusting 10 15.6
2016-May-04 04:31 045 5 gusting 8 15.6
2016-May-04 04:21 292 4 gusting 8 15.6
2016-May-04 04:11 354 6 gusting 8 15.6
2016-May-04 04:01 338 5 gusting 8 15.6
2016-May-04 03:51 039 4 gusting 8 15.6
2016-May-04 03:41 003 5 gusting 7 15.6
2016-May-04 03:31 068 6 gusting 10 15.6
2016-May-04 03:21 042 4 gusting 11 15.6
2016-May-04 03:11 013 5 gusting 6 15.6
2016-May-04 02:51 007 5 gusting 12 15.6
2016-May-04 02:41 048 5 gusting 7 15.6
2016-May-04 02:31 060 5 gusting 12 15.6
2016-May-04 02:11 325 5 gusting 10 16.1
2016-May-04 02:01 048 5 gusting 10 15.6
2016-May-04 01:51 074 6 gusting 10 16.1
2016-May-04 01:31 068 5 gusting 12 16.1
2016-May-04 01:21 034 6 gusting 11 16.1
2016-May-04 01:11 050 6 gusting 13 16.1
2016-May-04 01:01 058 7 gusting 14 16.1
2016-May-04 00:51 357 5 gusting 13 16.1
2016-May-04 00:41 065 6 gusting 13 16.1
2016-May-04 00:31 026 6 gusting 8 16.1
2016-May-04 00:21 045 6 gusting 11 16.1
2016-May-04 00:11 036 6 gusting 18 16.1
2016-May-04 00:01 349 5 gusting 13 16.1
2016-May-03 23:31 006 6 gusting 11 16.1
2016-May-03 23:11 082 4 gusting 8 16.1
2016-May-03 23:01 056 4 gusting 7 16.1
2016-May-03 22:51 315 2 gusting 6 16.1
2016-May-03 22:41 084 4 gusting 6 16.1
2016-May-03 22:31 045 4 gusting 6 15.6
2016-May-03 22:21 039 5 gusting 13 16.1
2016-May-03 22:11 064 5 gusting 12 15.6
2016-May-03 22:01 068 5 gusting 10 15.6
2016-May-03 21:51 087 3 gusting 7 16.1
2016-May-03 21:41 061 5 gusting 6 15.6
2016-May-03 21:31 064 6 gusting 10 15.6
2016-May-03 21:21 048 4 gusting 6 15.6
2016-May-03 21:11 026 5 gusting 11 15.6
2016-May-03 21:01 068 5 gusting 6 15.6
2016-May-03 20:51 077 5 gusting 8 15.6
2016-May-03 20:41 090 4 gusting 6 15.6
2016-May-03 20:31 029 4 gusting 5 15.6
2016-May-03 20:21 045 4 gusting 8 15.6
2016-May-03 20:11 003 5 gusting 8 15.6
2016-May-03 20:01 344 4 gusting 6 15.6
2016-May-03 19:51 345 4 gusting 7 15.6
2016-May-03 19:41 032 6 gusting 12 16.1
2016-May-03 19:21 325 6 gusting 10 16.1
2016-May-03 19:11 338 6 gusting 10 16.1
2016-May-03 19:01 300 6 gusting 12 16.1
2016-May-03 18:41 035 6 gusting 10 16.7
2016-May-03 18:31 347 6 gusting 8 16.7
2016-May-03 18:21 102 5 gusting 10 17.2
2016-May-03 18:11 334 6 gusting 10 17.2
2016-May-03 18:01 045 6 gusting 8 17.8
2016-May-03 17:51 018 6 gusting 12 17.8
2016-May-03 17:41 039 6 gusting 13 18.3
2016-May-03 17:31 18.9
2016-May-03 17:11 21.1
2016-May-03 17:01 292 6 gusting 12 21.1
2016-May-03 16:51 345 7 gusting 10 21.7
2016-May-03 16:41 331 6 gusting 10 22.2
2016-May-03 16:31 345 7 gusting 13 22.2
2016-May-03 16:11 273 6 gusting 12 23.3
2016-May-03 16:01 038 6 gusting 11 23.9
2016-May-03 15:51 348 6 gusting 12 24.4
2016-May-03 15:41 026 6 gusting 10 25.0
2016-May-03 15:31 022 5 gusting 10 25.6
2016-May-03 15:21 348 5 gusting 8 26.1
2016-May-03 15:11 022 5 gusting 12 26.1
2016-May-03 15:01 353 6 gusting 12 26.7
2016-May-03 14:51 324 5 gusting 12 26.7
2016-May-03 14:31 196 5 gusting 7 27.2
2016-May-03 14:21 067 4 gusting 6 27.8
2016-May-03 14:11 022 6 gusting 10 27.8
2016-May-03 14:01 012 4 gusting 10 27.8
2016-May-03 13:51 064 4 gusting 8 27.8
2016-May-03 13:41 016 4 gusting 6 27.8
2016-May-03 13:31 063 4 gusting 6 28.3
2016-May-03 13:21 315 6 gusting 7 27.8
2016-May-03 13:11 304 5 gusting 7 28.3
2016-May-03 13:01 296 4 gusting 6 28.3
2016-May-03 12:51 035 5 gusting 13 27.8
2016-May-03 12:21 275 6 gusting 8 27.8
2016-May-03 12:11 338 5 gusting 11 27.8
2016-May-03 12:01 035 6 gusting 8 27.8
2016-May-03 11:51 335 4 gusting 6 27.8
2016-May-03 11:41 315 4 gusting 4 27.8
2016-May-03 11:31 004 4 gusting 6 27.2
2016-May-03 11:21 031 4 gusting 6 27.2
2016-May-03 11:11 346 6 gusting 10 26.7
2016-May-03 11:01 315 6 gusting 8 26.7
2016-May-03 10:51 325 4 gusting 13 26.7
2016-May-03 10:31 031 4 gusting 8 26.7
2016-May-03 10:21 315 26.7
2016-May-03 10:01 022 26.7
2016-May-03 09:51 022 26.1
2016-May-03 09:41 022 26.1
2016-May-03 09:31 022 25.6
2016-May-03 09:21 022 25.0
2016-May-03 09:11 022 24.4
2016-May-03 09:01 022 23.9
2016-May-03 08:51 022 23.9
2016-May-03 08:41 022 23.3
2016-May-03 08:31 022 23.3
2016-May-03 08:11 022 22.2
2016-May-03 08:01 022 21.7
2016-May-03 07:41 022 20.6
2016-May-03 07:31 022 20.0
2016-May-03 07:21 022 19.4
2016-May-03 07:11 022 18.9
2016-May-03 07:01 022 18.3
2016-May-03 06:51 022 17.2
2016-May-03 06:41 022 16.7
2016-May-03 06:31 022 16.1
2016-May-03 06:21 022 15.6
2016-May-03 06:11 022 15.0
2016-May-03 06:01 022 14.4
2016-May-03 05:51 022 14.4
2016-May-03 05:41 022 13.9
2016-May-03 05:31 022 13.9
2016-May-03 05:21 022 13.9
2016-May-03 05:11 022 13.3
2016-May-03 05:01 022 13.3
2016-May-03 04:51 022 13.3
2016-May-03 04:41 022 13.3
2016-May-03 04:31 022 13.3
2016-May-03 04:21 022 12.8
2016-May-03 04:11 022 12.8
2016-May-03 04:01 022 12.8